Regional Weather Roundup
Issued by NWS

Home | Current Version | Previous Version | Text Only | Print | Product List | Glossary On
Versions: 1 2 3 4 5 6 7 8 9 10 11 12 13 14 15 16 17 18 19 20 21 22 23 24 25 26 27
000
ASUS45 KSLC 272010
RWRUT

UTAH REGIONAL WEATHER ROUNDUP
NATIONAL WEATHER SERVICE SALT LAKE CITY UT
200 PM MDT THU APR 27 2017

UTZ001>011-023>025-272100-

NORTHERN UTAH

CITY           SKY/WX    TMP DP  RH WIND       PRES   REMARKS
BRIGHAM CITY   CLOUDY    43  32  65 S17       29.82S
HILL AFB       PTSUNNY   48  23  38 W13G25    29.81F
LOGAN          CLOUDY    48  26  42 W20       29.79F
OGDEN          LGT RAIN  44  32  62 N14       29.81F
SALT LAKE CITY PTSUNNY   50  26  39 NW21G29   29.83F
TOOELE VALLEY  PTSUNNY   50  30  46 NW25G32   29.85S
WENDOVER       CLOUDY    50  21  32 N17G25    29.84F
HEBER CITY     CLOUDY    43  25  49 NW10      29.79S
WEST JORDAN    PTSUNNY   49  35  60 NW22G28   29.84F

$$

UTZ011>015-024>027-272100-

CENTRAL/NORTHEAST UTAH

CITY           SKY/WX    TMP DP  RH WIND       PRES   REMARKS
PROVO AIRPORT  MOSUNNY   47  27  45 N18G25    29.84S
MOAB/CANYONLAN SUNNY     62   8  12 W29G36    29.65F
DELTA          CLOUDY    48  23  37 NW14      29.83F
PRICE          MOSUNNY   49  20  31 NW23G29   29.73S
ROOSEVELT      SUNNY     54  19  26 W28G43    29.67S
VERNAL         CLOUDY    49  20  31 E7        29.62F

$$

UTZ013>016-019>022-027-272100-

SOUTHERN UTAH

CITY           SKY/WX    TMP DP  RH WIND       PRES   REMARKS
BRYCE CANYON   PTSUNNY   46  26  45 NW21G26   29.82F
CEDAR CITY     MOSUNNY   59  24  26 NW16G24   29.79F
MILFORD        CLOUDY    54  27  35 N12       29.80F
ST GEORGE      PTCLDY    73  25  16 NW16G30   29.72F
HANKSVILLE     SUNNY     61  14  16 NW23G32   29.74S
BLANDING       PTSUNNY   56  25  30 W17G26    29.76S

$$

REGIONAL REPORTS     COLORADO/ARIZONA

CITY           SKY/WX    TMP DP  RH WIND       PRES   REMARKS
CRAIG, CO      LGT RAIN  40  28  62 SW7       29.67R
GRAND JUNCTION CLOUDY    55  25  31 W17G28    29.63S
RIFLE, CO      CLOUDY    53  23  31 W16G28    29.62S
MONTROSE, CO   MOSUNNY   59   7  12 W20G33    29.62F
CORTEZ, CO     MOSUNNY   56  34  43 W17G24    29.69F
COLORADO CITY    N/A     64  28  25 W21G28    29.81F
PAGE, AZ       PTSUNNY   68  25  19 NW14G26   29.68F
GRAND CANYON   SUNNY     61  26  26 W15G24    29.81F
KINGMAN, AZ    MOSUNNY   78  29  16 N13G23    29.78F
FLAGSTAFF, AZ  MOSUNNY   63  21  20 SW28G41   29.82F

$$

REGIONAL REPORTS    NEVADA/IDAHO/WYOMING

CITY           SKY/WX    TMP DP  RH WIND       PRES   REMARKS
LAS VEGAS, NV  PTSUNNY   82  21  10 N14G24    29.70F
ELY, NY        MOSUNNY   46  20  35 NW21G29   29.87S
ELKO, NV       LGT RAIN  42  30  62 W8G23     29.92R
POCATELLO, ID  LGT SNOW  35  33  92 N14       29.81R FOG     WCI  26
BURLEY, ID     LGT RAIN  47  27  45 W25G38    29.84R
FORT BRIDGER,  CLOUDY    37  25  62 NW23G31   29.75F WCI  25
EVANSTON, WY   MOSUNNY   38  25  59 W26G36    29.74F WCI  26
ROCK SPRINGS,  CLOUDY    40  22  48 W37G45    29.64R WCI  27
KEMMERER, WY     N/A     36  23  60 W30G39    29.70S WCI  22

$$




USA.gov is the U.S. government's official web portal to all federal, state and local government web resources and services.